Regional Weather Roundup
Issued by NWS

Home | Current Version | Previous Version | Text Only | Print | Product List | Glossary Off
Versions: 1 2 3 4 5 6 7 8 9 10 11 12 13 14 15 16 17 18 19 20 21 22 23 24 25 26 27 28 29 30 31 32 33 34 35 36 37 38 39 40 41 42 43 44 45 46 47 48 49 50

000
ASUS43 KDMX 302007
RWRIA

WEATHER ROUNDUP FOR IOWA
NATIONAL WEATHER SERVICE DES MOINES IA
300 PM CDT THU JUL 30 2015

NOTE: "FAIR" INDICATES FEW OR NO CLOUDS BELOW 12,000 FEET WITH NO
SIGNIFICANT WEATHER AND/OR OBSTRUCTIONS TO VISIBILITY.

* - THESE STATIONS ARE NOT NWS STATIONS...THUS NOT UNDER NWS
QUALITY CONTROL.  THEY ALSO DO NOT REPORT WEATHER SUCH
AS PRECIPITATION OR FOG.

IAZ001>003-012>014-020>022-031>034-043>046-302100-
   NORTHWEST IOWA

CITY           SKY/WX    TMP DP  RH WIND       PRES   REMARKS
CARROLL *      SUNNY     82  66  57 W12G21    30.16F HX  85
CHEROKEE *     SUNNY     84  64  51 W12       30.15S HX  86
DENISON *      HAZE      82  64  54 W9        30.15F VSB 1/4 HX  84
LE MARS *      SUNNY     84  70  61 SW12      30.15F HX  88
ORANGE CITY *  SUNNY     82  64  54 W8        30.15F HX  84
SHELDON *      SUNNY     84  64  51 W8        30.14S HX  86
SIOUX CITY     SUNNY     86  67  52 W10       30.15F HX  89
SPENCER        SUNNY     86  61  42 W9        30.14F HX  86
STORM LAKE *   SUNNY     82  66  57 W8G18     30.17F HX  85
$$

IAZ055>058-069>071-079>083-090>094-302100-
   SOUTHWEST IOWA

CITY           SKY/WX    TMP DP  RH WIND       PRES   REMARKS
ATLANTIC *     SUNNY     84  63  48 W7        30.18F HX  85
AUDUBON *      SUNNY     84  63  48 W5        30.19F HX  85
CLARINDA *     SUNNY     86  64  48 W10       30.20F HX  87
COUNCIL BLFS * SUNNY     86  61  42 SW13      30.19S HX  86
CRESTON *      SUNNY     84  63  48 W10       30.21S HX  85
HARLAN  *      SUNNY     84  64  51 SW10      30.21F HX  86
LAMONI         SUNNY     85  61  44 W8        30.19F HX  85
RED OAK *      SUNNY     86  63  45 W8        30.19F HX  87
SHENANDOAH *   SUNNY     86  66  51 SW7       30.19F HX  88
$$

IAZ047>049-059>061-072>074-084-302100-
   CENTRAL IOWA

CITY           SKY/WX    TMP DP  RH WIND       PRES   REMARKS
AMES           SUNNY     84  67  56 W14       30.14S HX  86
ANKENY *       SUNNY     86  61  42 W20       30.14S HX  86
CHARITON *     SUNNY     86  63  45 W8G15     30.17S HX  87
DES MOINES     MOSUNNY   89  53  29 NW17      30.14F HX  87
GRINNELL*      MOSUNNY   84  64  51 W16       30.15S HX  86
KNOXVILLE *    SUNNY     86  61  42 NW12G17   30.14F HX  86
MARSHALLTOWN   SUNNY     84  65  52 W13       30.12S HX  86
PELLA *        SUNNY     86  68  54 W9G16     30.15F HX  89
PERRY *          N/A     84  66  54 W14       30.16S HX  86
$$

IAZ004>006-015-016-023>025-035-036-302100-
   NORTH CENTRAL IOWA

CITY           SKY/WX    TMP DP  RH WIND       PRES   REMARKS
ALGONA *       SUNNY     84  61  45 NW7       30.14S HX  84
CLARION *      MOSUNNY   84  68  58 NW9       30.14S HX  87
ESTHERVILLE    SUNNY     83  57  41 NW5       30.13F HX  82
FORT DODGE *   SUNNY     84  68  58 W9        30.15S HX  87
MASON CITY     SUNNY     85  61  44 NW13      30.13F HX  85
FOREST CITY *  SUNNY     81  59  47 W9        30.13S HX  81
IOWA FALLS *     N/A     84  64  51 W9        30.15S HX  86
$$

IAZ007>011-017>019-026>030-037>042-050>054-066-302100-
   NORTHEAST IOWA

CITY           SKY/WX    TMP DP  RH WIND       PRES   REMARKS
CEDAR RAPIDS   SUNNY     85  69  58 W10       30.10F HX  89
CHARLES CITY * SUNNY     82  63  51 NW10G20   30.11F HX  83
CLINTON *      SUNNY     84  64  51 W12       30.11F HX  86
DECORAH *      SUNNY     82  57  42 VRB7G16   30.08S HX  82
DUBUQUE        SUNNY     85  59  41 NW14      30.10S HX  84
MONTICELLO *   SUNNY     86  66  51 W12       30.09S HX  88
OELWEIN *      SUNNY     84  64  51 NW10G17   30.11S HX  86
WATERLOO       SUNNY     85  63  47 W8        30.09F HX  86
$$

IAZ064-065-067-068-078-302100-
   EAST CENTRAL IOWA

CITY           SKY/WX    TMP DP  RH WIND       PRES   REMARKS
DAVENPORT      SUNNY     85  65  51 W9        30.10F HX  86
IOWA CITY      SUNNY     86  66  51 W14       30.11F HX  88
MT. PLEASANT * SUNNY     88  54  31 W10G16    30.13F HX  86
MUSCATINE *    SUNNY     90  63  40 W14       30.10F HX  90
QUAD CITIES    SUNNY     90  59  35 NW10      30.09F HX  89
$$

IAZ062-063-075>077-085>089-095>099-302100-
   SOUTHEAST IOWA

CITY           SKY/WX    TMP DP  RH WIND       PRES   REMARKS
BURLINGTON     SUNNY     87  65  47 W10G17    30.13F HX  89
FAIRFIELD *    SUNNY     84  63  48 W10G21    30.14F HX  85
FORT MADISON * SUNNY     84  64  51 NW12G20   30.14F HX  86
KEOKUK *       SUNNY     88  63  42 W13       30.13F HX  88
OSKALOOSA *      N/A     84  64  51 W13G21    30.15S HX  86
CENTERVILLE *  SUNNY     84  64  51 W12       30.18F HX  86
OTTUMWA        SUNNY     85  65  51 NW12      30.12F HX  86
WASHINGTON *   SUNNY     84  66  54 W10G17    30.14S HX  86
$$

ABBREVIATIONS USED IN REMARKS
   TC - TEMPERATURES IN CELSIUS
  WCI - WIND CHILL INDEX
   HX - HEAT INDEX
  VSB - VISIBILITY
$$



USA.gov is the U.S. government's official web portal to all federal, state and local government web resources and services.